Time,TemperatureF,DewpointF,PressureIn,WindDirection,WindDirectionDegrees,WindSpeedMPH,WindSpeedGustMPH,Humidity,HourlyPrecipIn,Conditions,Clouds,dailyrainin,SolarRadiationWatts/m^2,SoftwareType,DateUTC
2013-01-19 00:22:00,43.0,16.0,-100.00,NNE,12,15.0,21.0,33,0.00,,,0.00,0.000000,,2013-01-19 08:22:00,
2013-01-19 00:32:00,43.0,16.0,-100.00,NNE,12,15.0,21.0,33,0.00,,,0.00,0.000000,,2013-01-19 08:32:00,
2013-01-19 00:42:00,43.0,16.0,-100.00,NNE,12,15.0,21.0,33,0.00,,,0.00,0.000000,,2013-01-19 08:42:00,
2013-01-19 00:52:00,43.0,16.0,-100.00,NNE,12,15.0,21.0,33,0.00,,,0.00,0.000000,,2013-01-19 08:52:00,
2013-01-19 01:22:00,43.0,17.0,-100.00,North,9,18.0,23.0,35,0.00,,,0.00,0.000000,,2013-01-19 09:22:00,
2013-01-19 01:32:00,43.0,17.0,-100.00,North,9,18.0,23.0,35,0.00,,,0.00,0.000000,,2013-01-19 09:32:00,
2013-01-19 01:42:00,43.0,17.0,-100.00,North,9,18.0,23.0,35,0.00,,,0.00,0.000000,,2013-01-19 09:42:00,
2013-01-19 01:52:00,43.0,17.0,-100.00,North,9,18.0,23.0,35,0.00,,,0.00,0.000000,,2013-01-19 09:52:00,
2013-01-19 02:22:00,41.0,15.0,-100.00,North,6,19.0,26.0,34,0.00,,,0.00,0.000000,,2013-01-19 10:22:00,
2013-01-19 02:32:00,41.0,15.0,-100.00,North,6,19.0,26.0,34,0.00,,,0.00,0.000000,,2013-01-19 10:32:00,
2013-01-19 02:42:00,41.0,15.0,-100.00,North,6,19.0,26.0,34,0.00,,,0.00,0.000000,,2013-01-19 10:42:00,
2013-01-19 02:52:00,41.0,15.0,-100.00,North,6,19.0,26.0,34,0.00,,,0.00,0.000000,,2013-01-19 10:52:00,
2013-01-19 04:48:00,43.0,14.0,-100.00,North,10,16.0,24.0,30,0.00,,,0.00,0.000000,,2013-01-19 12:48:00,
2013-01-19 04:52:00,43.0,14.0,-100.00,North,10,16.0,24.0,30,0.00,,,0.00,0.000000,,2013-01-19 12:52:00,
2013-01-19 05:22:00,41.0,13.0,-100.00,North,9,15.0,21.0,31,0.00,,,0.00,0.000000,,2013-01-19 13:22:00,
2013-01-19 05:33:00,41.0,13.0,-100.00,North,9,15.0,21.0,31,0.00,,,0.00,0.000000,,2013-01-19 13:33:00,
2013-01-19 05:42:00,41.0,13.0,-100.00,North,9,15.0,21.0,31,0.00,,,0.00,0.000000,,2013-01-19 13:42:00,
2013-01-19 05:52:00,41.0,13.0,-100.00,North,9,15.0,21.0,31,0.00,,,0.00,0.000000,,2013-01-19 13:52:00,
2013-01-19 06:22:00,43.0,12.0,-100.00,NNE,18,16.0,23.0,28,0.00,,,0.00,0.000000,,2013-01-19 14:22:00,
2013-01-19 06:33:00,43.0,12.0,-100.00,NNE,18,16.0,23.0,28,0.00,,,0.00,0.000000,,2013-01-19 14:33:00,
2013-01-19 06:42:00,43.0,12.0,-100.00,NNE,18,16.0,23.0,28,0.00,,,0.00,0.000000,,2013-01-19 14:42:00,
2013-01-19 06:53:00,43.0,12.0,-100.00,NNE,18,16.0,23.0,28,0.00,,,0.00,0.000000,,2013-01-19 14:53:00,
2013-01-19 07:22:00,41.0,10.0,-100.00,North,9,16.0,21.0,28,0.00,,,0.00,0.000000,,2013-01-19 15:22:00,
2013-01-19 07:33:00,41.0,10.0,-100.00,North,9,16.0,21.0,28,0.00,,,0.00,0.000000,,2013-01-19 15:33:00,
2013-01-19 07:43:00,41.0,10.0,-100.00,North,9,16.0,21.0,28,0.00,,,0.00,0.000000,,2013-01-19 15:43:00,
2013-01-19 07:53:00,41.0,10.0,-100.00,North,9,16.0,21.0,28,0.00,,,0.00,0.000000,,2013-01-19 15:53:00,
2013-01-19 08:23:00,43.0,10.0,-100.00,NNE,17,16.0,22.0,25,0.00,,,0.00,25.000000,,2013-01-19 16:23:00,
2013-01-19 08:33:00,43.0,10.0,-100.00,NNE,17,16.0,22.0,25,0.00,,,0.00,25.000000,,2013-01-19 16:33:00,
2013-01-19 08:43:00,43.0,10.0,-100.00,NNE,17,16.0,22.0,25,0.00,,,0.00,25.000000,,2013-01-19 16:43:00,
2013-01-19 08:53:00,43.0,10.0,-100.00,NNE,17,16.0,22.0,25,0.00,,,0.00,25.000000,,2013-01-19 16:53:00,
2013-01-19 09:27:00,46.0,10.0,-100.00,NNE,19,15.0,22.0,23,0.00,,,-99.99,261.000000,,2013-01-19 17:27:00,
2013-01-19 09:34:00,46.0,10.0,-100.00,NNE,19,15.0,22.0,23,0.00,,,-99.99,261.000000,,2013-01-19 17:34:00,
2013-01-19 09:53:00,46.0,10.0,-100.00,NNE,19,15.0,22.0,23,0.00,,,-99.99,261.000000,,2013-01-19 17:53:00,
2013-01-19 10:34:00,53.0,11.0,-100.00,NNE,18,9.0,17.0,18,0.00,,,0.00,451.000000,,2013-01-19 18:34:00,
2013-01-19 10:44:00,53.0,11.0,-100.00,NNE,18,9.0,17.0,18,0.00,,,0.00,451.000000,,2013-01-19 18:44:00,
2013-01-19 10:53:00,53.0,11.0,-100.00,NNE,18,9.0,17.0,18,0.00,,,0.00,451.000000,,2013-01-19 18:53:00,
2013-01-19 11:27:00,59.0,10.0,-100.00,North,8,9.0,12.0,14,0.00,,,0.00,598.000000,,2013-01-19 19:27:00,
2013-01-19 11:37:00,59.0,10.0,-100.00,North,8,9.0,12.0,14,0.00,,,0.00,598.000000,,2013-01-19 19:37:00,
2013-01-19 11:44:00,59.0,10.0,-100.00,North,8,9.0,12.0,14,0.00,,,0.00,598.000000,,2013-01-19 19:44:00,
2013-01-19 11:54:00,59.0,10.0,-100.00,North,8,9.0,12.0,14,0.00,,,0.00,598.000000,,2013-01-19 19:54:00,
2013-01-19 12:24:00,65.0,9.0,-100.00,North,0,6.0,13.0,11,0.00,,,-99.99,684.000000,,2013-01-19 20:24:00,
2013-01-19 12:35:00,65.0,9.0,-100.00,North,0,6.0,13.0,11,0.00,,,-99.99,684.000000,,2013-01-19 20:35:00,
2013-01-19 12:44:00,65.0,9.0,-100.00,North,0,6.0,13.0,11,0.00,,,-99.99,684.000000,,2013-01-19 20:44:00,
2013-01-19 12:53:00,65.0,9.0,-100.00,North,0,6.0,13.0,11,0.00,,,-99.99,684.000000,,2013-01-19 20:53:00,
2013-01-19 13:24:00,68.0,2.0,-100.00,NNW,339,2.0,10.0,7,0.00,,,0.00,701.000000,,2013-01-19 21:24:00,
2013-01-19 13:39:00,68.0,2.0,-100.00,NNW,339,2.0,10.0,7,0.00,,,0.00,701.000000,,2013-01-19 21:39:00,
2013-01-19 13:54:00,68.0,2.0,-100.00,NNW,339,2.0,10.0,7,0.00,,,0.00,701.000000,,2013-01-19 21:54:00,
2013-01-19 14:25:00,74.0,6.0,-100.00,North,350,1.0,12.0,7,0.00,,,-99.99,646.000000,,2013-01-19 22:25:00,
2013-01-19 15:24:00,70.0,-4.0,-100.00,SW,222,9.0,15.0,5,0.00,,,0.00,526.000000,,2013-01-19 23:24:00,
2013-01-19 15:34:00,70.0,-4.0,-100.00,SW,222,9.0,15.0,5,0.00,,,0.00,526.000000,,2013-01-19 23:34:00,
2013-01-19 16:24:00,68.0,-5.0,-100.00,SW,231,4.0,12.0,5,0.00,,,0.00,235.000000,,2013-01-20 00:24:00,
2013-01-19 17:24:00,61.0,8.0,-100.00,NNW,343,4.0,9.0,12,0.00,,,0.00,20.000000,,2013-01-20 01:24:00,
2013-01-19 17:35:00,61.0,8.0,-100.00,NNW,343,4.0,9.0,12,0.00,,,0.00,20.000000,,2013-01-20 01:35:00,
2013-01-19 17:45:00,61.0,8.0,-100.00,NNW,343,4.0,9.0,12,0.00,,,0.00,20.000000,,2013-01-20 01:45:00,
2013-01-19 17:54:00,61.0,8.0,-100.00,NNW,343,4.0,9.0,12,0.00,,,0.00,20.000000,,2013-01-20 01:54:00,
2013-01-19 18:25:00,57.0,8.0,-100.00,North,3,9.0,13.0,14,0.00,,,0.00,2.000000,,2013-01-20 02:25:00,
2013-01-19 18:34:00,57.0,8.0,-100.00,North,3,9.0,13.0,14,0.00,,,0.00,2.000000,,2013-01-20 02:34:00,
2013-01-19 18:43:00,57.0,8.0,-100.00,North,3,9.0,13.0,14,0.00,,,0.00,2.000000,,2013-01-20 02:43:00,
2013-01-19 18:54:00,57.0,8.0,-100.00,North,3,9.0,13.0,14,0.00,,,0.00,2.000000,,2013-01-20 02:54:00,
2013-01-19 19:24:00,52.0,10.0,-100.00,North,7,11.0,17.0,18,0.00,,,0.00,0.000000,,2013-01-20 03:24:00,
2013-01-19 19:36:00,52.0,10.0,-100.00,North,7,11.0,17.0,18,0.00,,,0.00,0.000000,,2013-01-20 03:36:00,
2013-01-19 19:44:00,52.0,10.0,-100.00,North,7,11.0,17.0,18,0.00,,,0.00,0.000000,,2013-01-20 03:44:00,
2013-01-19 19:53:00,52.0,10.0,-100.00,North,7,11.0,17.0,18,0.00,,,0.00,0.000000,,2013-01-20 03:53:00,
2013-01-19 20:24:00,50.0,15.0,-100.00,North,11,15.0,18.0,24,0.00,,,0.00,0.000000,,2013-01-20 04:24:00,
2013-01-19 20:34:00,50.0,15.0,-100.00,North,11,15.0,18.0,24,0.00,,,0.00,0.000000,,2013-01-20 04:34:00,
2013-01-19 20:43:00,50.0,15.0,-100.00,North,11,15.0,18.0,24,0.00,,,0.00,0.000000,,2013-01-20 04:43:00,
2013-01-19 20:53:00,50.0,15.0,-100.00,North,11,15.0,18.0,24,0.00,,,0.00,0.000000,,2013-01-20 04:53:00,
2013-01-19 21:22:00,48.0,15.0,-100.00,North,10,16.0,20.0,26,0.00,,,0.00,0.000000,,2013-01-20 05:22:00,
2013-01-19 21:32:00,48.0,15.0,-100.00,North,10,16.0,20.0,26,0.00,,,0.00,0.000000,,2013-01-20 05:32:00,
2013-01-19 21:42:00,48.0,15.0,-100.00,North,10,16.0,20.0,26,0.00,,,0.00,0.000000,,2013-01-20 05:42:00,
2013-01-19 21:52:00,48.0,15.0,-100.00,North,10,16.0,20.0,26,0.00,,,0.00,0.000000,,2013-01-20 05:52:00,
2013-01-19 22:22:00,46.0,14.0,-100.00,North,10,15.0,22.0,27,0.00,,,0.00,0.000000,,2013-01-20 06:22:00,
2013-01-19 22:33:00,46.0,14.0,-100.00,North,10,15.0,22.0,27,0.00,,,0.00,0.000000,,2013-01-20 06:33:00,
2013-01-19 22:42:00,46.0,14.0,-100.00,North,10,15.0,22.0,27,0.00,,,0.00,0.000000,,2013-01-20 06:42:00,
2013-01-19 22:52:00,46.0,14.0,-100.00,North,10,15.0,22.0,27,0.00,,,0.00,0.000000,,2013-01-20 06:52:00,
2013-01-19 23:22:00,45.0,15.0,-100.00,NNE,12,17.0,22.0,30,0.00,,,0.00,0.000000,,2013-01-20 07:22:00,
2013-01-19 23:32:00,45.0,15.0,-100.00,NNE,12,17.0,22.0,30,0.00,,,0.00,0.000000,,2013-01-20 07:32:00,
2013-01-19 23:42:00,45.0,15.0,-100.00,NNE,12,17.0,22.0,30,0.00,,,0.00,0.000000,,2013-01-20 07:42:00,
2013-01-19 23:52:00,45.0,15.0,-100.00,NNE,12,17.0,22.0,30,0.00,,,0.00,0.000000,,2013-01-20 07:52:00,